Powrót do katalogu

CZ-4C DEB

AktywnySSO
NORAD 38662·DEBRIS·🇨🇳 China

Wystrzelony May 29, 2012 z Taiyuan Satellite Launch Center

Loading…

Następne Przeloty (najbliższe 24 godziny)

TLE

ŚwieżeSource: Space-Track

Epoka: Sep 14, 2026, 12:11 UTC

1 38662U 12029D   26257.50826605  .00000030  00000-0  17942-3 0  9992
2 38662 100.4896  13.7416 0131150 155.6296 205.1095 13.19612434685243

Śledź CZ-4C DEB w czasie rzeczywistym z AllMySat

Download on the App Store